Visibility
15.0 15.0 15.0 15.0 15.0 15.0 15.0 15.0 15.0 15.0 15.0 15.0 15.0 15.0 15.0 14.0 14.3 1.4 0.1 1.5 15.0 15.0 14.1 15.0 14.4 4.1 14.3 9.6 5.0 0.8 8.5 8.5 7.5 15.0 15.0 15.0 15.0 15.0 15.0 15.0 15.0 15.0 15.0 15.0 15.0 3.9 5.7 15.0 15.0 15.0 15.0 15.0 15.0 15.0
15.0 15.0 15.0 15.0 15.0 15.0 15.0 15.0 15.0 15.0 15.0 15.0 6.3 6.6 15.0 11.8 8.0 3.8 0.1 5.3 14.7 2.7 0.0 15.0 3.5 3.9 0.1 9.0 4.3 5.9 13.1 15.0 7.0 15.0 15.0 15.0 15.0 15.0 15.0 15.0 15.0 15.0 15.0 15.0 15.0 15.0 15.0 15.0 15.0 15.0 15.0 15.0 15.0 15.0
15.0 15.0 15.0 15.0 15.0 15.0 15.0 15.0 15.0 15.0 15.0 15.0 11.0 8.8 9.6 5.6 2.3 2.5 4.5 0.6 3.6 1.1 1.8 7.7 2.6 11.8 12.3 3.7 0.4 7.6 3.9 14.2 15.0 15.0 15.0 15.0 15.0 15.0 15.0 15.0 15.0 15.0 15.0 15.0 15.0 15.0 15.0 15.0 15.0 15.0 15.0 15.0 15.0 15.0
15.0 15.0 15.0 15.0 14.3 15.0 15.0 15.0 15.0 15.0 15.0 10.2 7.5 13.8 15.0 5.4 2.7 2.5 1.1 11.1 14.1 8.8 0.0 2.1 15.0 15.0 4.9 12.4 3.1 6.9 7.0 5.6 15.0 14.9 12.4 15.0 15.0 15.0 15.0 15.0 15.0 15.0 15.0 15.0 15.0 15.0 15.0 15.0 15.0 15.0 15.0 15.0 15.0 15.0
15.0 15.0 15.0 15.0 15.0 15.0 15.0 15.0 15.0 15.0 15.0 15.0 10.7 13.3 15.0 14.8 3.8 3.3 1.6 4.2 14.1 11.2 0.0 0.0 14.0 15.0 15.0 6.3 8.7 3.0 5.9 3.6 13.8 5.5 3.7 12.0 15.0 15.0 15.0 15.0 15.0 15.0 15.0 15.0 15.0 15.0 15.0 15.0 15.0 15.0 15.0 15.0 15.0 15.0
15.0 15.0 15.0 14.8 15.0 15.0 15.0 15.0 15.0 15.0 15.0 13.7 7.6 12.1 15.0 15.0 4.7 3.5 0.1 1.6 7.7 15.0 12.0 0.1 10.7 15.0 14.6 5.3 7.4 3.8 9.7 6.4 5.9 14.4 10.2 15.0 15.0 15.0 15.0 15.0 15.0 15.0 15.0 15.0 15.0 15.0 15.0 15.0 15.0 15.0 15.0 15.0 15.0 15.0
15.0 15.0 15.0 14.6 15.0 15.0 15.0 15.0 15.0 15.0 15.0 12.8 10.8 14.5 15.0 15.0 3.4 3.9 0.1 0.2 3.1 15.0 0.1 0.0 0.1 4.8 11.3 14.9 4.6 7.9 3.7 4.7 15.0 15.0 15.0 15.0 15.0 15.0 15.0 15.0 15.0 15.0 15.0 15.0 15.0 15.0 15.0 15.0 15.0 15.0 15.0 15.0 15.0 15.0
15.0 15.0 15.0 15.0 15.0 15.0 15.0 15.0 15.0 15.0 15.0 15.0 12.5 10.7 15.0 7.3 7.7 14.9 11.0 8.5 4.5 4.2 13.5 0.0 0.0 0.7 6.0 0.4 0.1 5.6 11.7 12.7 7.1 8.0 15.0 15.0 15.0 15.0 15.0 15.0 15.0 15.0 15.0 15.0 15.0 15.0 15.0 15.0 15.0 15.0 15.0 15.0 15.0 15.0
15.0 15.0 15.0 15.0 15.0 15.0 14.7 15.0 15.0 15.0 15.0 15.0 15.0 14.8 15.0 3.0 8.2 9.6 2.6 1.3 5.9 4.3 0.0 0.2 0.3 0.0 7.5 3.8 7.2 14.2 9.6 1.9 12.6 9.5 15.0 15.0 15.0 15.0 15.0 15.0 15.0 15.0 15.0 15.0 15.0 15.0 15.0 15.0 15.0 15.0 15.0 15.0 15.0 15.0
15.0 15.0 15.0 15.0 15.0 15.0 15.0 15.0 13.8 12.4 15.0 13.9 10.1 3.0 0.0 5.1 14.7 8.6 2.8 0.2 5.7 4.9 5.0 15.0 15.0 0.0 12.1 15.0 0.9 0.1 10.7 15.0 15.0 15.0 15.0 15.0 15.0 15.0 15.0 15.0 15.0 15.0 15.0 15.0 15.0 15.0 15.0 15.0 15.0 15.0 15.0 15.0 15.0 15.0
15.0 15.0 15.0 15.0 15.0 15.0 15.0 14.4 10.6 12.4 8.9 8.3 0.0 0.0 14.9 6.1 7.1 0.1 0.0 0.0 0.0 0.0 2.2 14.0 15.0 2.1 15.0 15.0 15.0 15.0 15.0 15.0 15.0 15.0 15.0 15.0 15.0 15.0 15.0 15.0 15.0 15.0 15.0 15.0 15.0 15.0 15.0 15.0 15.0 15.0 15.0 15.0 15.0 15.0
15.0 14.5 15.0 15.0 15.0 15.0 15.0 14.4 9.5 11.6 9.5 6.4 4.2 15.0 4.9 0.0 0.0 0.0 0.0 0.0 0.0 0.0 9.9 15.0 15.0 15.0 15.0 15.0 15.0 15.0 15.0 15.0 15.0 15.0 15.0 15.0 15.0 15.0 15.0 15.0 15.0 15.0 15.0 15.0 15.0 15.0 15.0 15.0 15.0 15.0 15.0 15.0 15.0 15.0
15.0 11.1 9.9 11.1 10.2 15.0 15.0 14.9 14.7 7.7 15.0 13.4 1.3 0.0 0.0 0.0 0.0 0.1 0.1 0.1 0.0 15.0 15.0 15.0 15.0 15.0 15.0 15.0 15.0 15.0 14.6 15.0 15.0 15.0 14.6 15.0 15.0 15.0 15.0 15.0 15.0 15.0 15.0 15.0 15.0 15.0 15.0 15.0 15.0 15.0 15.0 15.0 15.0 15.0
14.8 14.6 15.0 12.9 11.6 15.0 15.0 15.0 11.3 10.5 7.2 0.0 0.0 0.1 0.0 0.1 0.8 11.5 15.0 15.0 15.0 15.0 15.0 15.0 15.0 15.0 15.0 15.0 15.0 15.0 15.0 15.0 15.0 15.0 15.0 15.0 15.0 15.0 15.0 15.0 15.0 15.0 15.0 15.0 15.0 15.0 15.0 15.0 15.0 15.0 15.0 13.4 0.0 0.3
14.7 14.1 14.9 11.8 15.0 14.1 15.0 14.6 15.0 11.4 0.3 0.0 0.1 0.6 1.6 8.4 15.0 15.0 14.6 15.0 15.0 15.0 15.0 15.0 15.0 15.0 15.0 9.4 14.6 15.0 15.0 15.0 15.0 15.0 15.0 15.0 15.0 15.0 15.0 15.0 15.0 15.0 15.0 15.0 15.0 15.0 15.0 15.0 15.0 15.0 9.7 14.4 12.1 0.1
13.0 7.1 9.9 15.0 10.7 9.7 13.3 14.1 14.8 5.3 0.2 0.1 0.0 0.1 10.1 4.8 13.1 15.0 12.6 12.6 15.0 15.0 15.0 15.0 15.0 15.0 15.0 15.0 15.0 10.7 15.0 15.0 15.0 15.0 15.0 15.0 15.0 15.0 15.0 15.0 15.0 15.0 15.0 15.0 15.0 15.0 15.0 1.6 2.0 15.0 15.0 15.0 0.0 0.0
9.9 0.4 15.0 14.8 13.2 12.8 11.7 5.5 1.3 0.0 0.0 0.4 4.3 2.9 1.3 14.3 13.8 10.3 6.6 15.0 15.0 15.0 15.0 15.0 15.0 15.0 15.0 15.0 15.0 15.0 15.0 15.0 15.0 15.0 15.0 15.0 15.0 15.0 15.0 15.0 15.0 15.0 15.0 15.0 15.0 15.0 15.0 15.0 15.0 15.0 15.0 15.0 15.0 9.0
0.1 15.0 15.0 14.9 10.6 8.1 9.5 0.4 0.0 0.0 0.0 6.5 5.8 12.4 15.0 15.0 15.0 12.9 12.2 15.0 15.0 15.0 15.0 15.0 15.0 15.0 15.0 15.0 15.0 15.0 15.0 15.0 15.0 15.0 15.0 15.0 15.0 15.0 15.0 15.0 15.0 15.0 15.0 15.0 15.0 15.0 15.0 15.0 15.0 15.0 15.0 15.0 15.0 15.0
3.0 15.0 13.6 13.1 14.1 1.1 0.0 0.0 12.0 1.6 2.3 15.0 15.0 15.0 15.0 15.0 13.7 8.9 15.0 15.0 15.0 15.0 15.0 15.0 15.0 15.0 15.0 15.0 15.0 15.0 15.0 15.0 15.0 15.0 15.0 15.0 15.0 15.0 15.0 15.0 15.0 15.0 15.0 15.0 15.0 15.0 15.0 15.0 15.0 15.0 15.0 15.0 15.0 15.0
13.8 3.8 4.3 15.0 15.0 5.2 0.0 0.0 11.9 14.5 0.3 1.0 15.0 15.0 5.6 15.0 15.0 9.4 6.4 15.0 15.0 15.0 15.0 15.0 15.0 15.0 15.0 15.0 15.0 15.0 15.0 15.0 15.0 15.0 15.0 15.0 15.0 15.0 15.0 15.0 15.0 15.0 15.0 15.0 15.0 15.0 15.0 15.0 15.0 15.0 15.0 15.0 15.0 15.0
1.6 2.3 5.5 8.8 3.0 14.9 5.4 14.4 7.6 0.0 0.0 0.2 3.8 0.1 0.0 7.8 15.0 15.0 15.0 15.0 15.0 15.0 15.0 15.0 15.0 15.0 15.0 15.0 15.0 15.0 15.0 15.0 15.0 15.0 15.0 15.0 15.0 15.0 15.0 15.0 15.0 15.0 15.0 15.0 15.0 15.0 15.0 15.0 15.0 15.0 15.0 0.0 0.9 0.5
0.7 4.5 7.5 7.2 3.1 15.0 14.7 15.0 15.0 15.0 13.2 0.1 0.1 0.0 0.0 0.0 0.0 0.1 15.0 15.0 15.0 15.0 15.0 15.0 15.0 15.0 15.0 15.0 15.0 15.0 15.0 15.0 15.0 15.0 15.0 15.0 15.0 15.0 15.0 15.0 15.0 15.0 15.0 15.0 15.0 15.0 15.0 15.0 15.0 15.0 3.8 0.0 15.0 15.0
4.7 4.3 3.3 11.6 0.1 0.1 0.0 15.0 0.1 11.4 0.2 0.0 0.3 0.1 0.0 0.0 0.1 15.0 13.4 15.0 15.0 15.0 15.0 15.0 15.0 15.0 15.0 15.0 15.0 15.0 15.0 15.0 15.0 15.0 15.0 15.0 15.0 15.0 15.0 15.0 15.0 15.0 15.0 15.0 15.0 15.0 15.0 15.0 13.1 0.0 0.1 0.2 0.1 0.1
15.0 8.2 0.0 0.1 8.2 0.1 0.4 0.6 13.3 9.2 4.7 1.6 2.9 0.2 6.2 0.1 9.8 15.0 15.0 15.0 15.0 15.0 15.0 15.0 15.0 15.0 15.0 15.0 15.0 15.0 15.0 15.0 15.0 15.0 15.0 15.0 15.0 15.0 15.0 15.0 15.0 15.0 15.0 15.0 15.0 15.0 15.0 0.0 0.0 2.1 0.0 0.0 0.0 0.1
14.7 0.1 0.2 0.8 1.2 15.0 0.3 0.4 3.6 5.6 3.9 14.9 15.0 15.0 15.0 15.0 15.0 15.0 15.0 15.0 15.0 15.0 15.0 15.0 15.0 15.0 15.0 15.0 15.0 15.0 15.0 15.0 15.0 15.0 15.0 15.0 15.0 15.0 15.0 15.0 15.0 15.0 15.0 14.3 0.0 0.0 0.0 0.0 0.0 0.0 0.0 0.0 0.0 0.1
0.4 0.1 0.9 0.9 1.1 10.2 10.2 4.6 4.6 11.5 15.0 15.0 15.0 15.0 15.0 15.0 15.0 15.0 15.0 15.0 15.0 15.0 1.0 15.0 15.0 15.0 15.0 15.0 15.0 15.0 15.0 15.0 15.0 15.0 15.0 15.0 15.0 15.0 15.0 15.0 15.0 15.0 15.0 0.2 0.0 0.0 0.0 0.0 0.0 0.0 0.1 0.1 0.2 0.1
0.3 0.5 15.0 15.0 15.0 15.0 15.0 14.2 15.0 14.2 13.7 14.9 14.1 15.0 15.0 15.0 15.0 15.0 15.0 15.0 15.0 15.0 15.0 15.0 15.0 15.0 15.0 15.0 15.0 15.0 15.0 15.0 15.0 6.4 15.0 15.0 15.0 15.0 12.5 0.0 0.3 15.0 15.0 6.1 0.0 0.0 0.0 0.0 0.0 0.0 0.1 0.1 0.1 0.3
14.6 11.1 2.9 13.7 15.0 15.0 15.0 15.0 3.5 15.0 15.0 15.0 15.0 15.0 15.0 15.0 15.0 15.0 15.0 15.0 15.0 15.0 15.0 15.0 15.0 15.0 15.0 15.0 15.0 15.0 15.0 7.4 6.3 13.6 15.0 15.0 15.0 15.0 2.2 2.1 2.3 0.1 0.2 0.0 0.1 0.0 0.1 0.0 0.0 0.0 0.0 0.1 0.1 0.0
15.0 15.0 15.0 13.3 0.3 13.1 2.4 2.1 4.0 15.0 15.0 15.0 0.1 15.0 15.0 15.0 1.1 14.7 15.0 15.0 15.0 15.0 13.1 13.0 0.5 0.1 13.2 13.4 13.1 14.4 0.4 0.3 2.0 2.0 2.8 0.0 0.0 0.0 0.1 0.1 0.0 0.0 0.0 0.0 0.2 0.0 0.0 0.0 0.0 0.0 0.0 0.0 0.0 0.0
15.0 15.0 0.2 0.0 1.1 13.1 0.2 0.1 0.1 0.1 9.3 15.0 15.0 10.3 15.0 15.0 6.3 15.0 15.0 12.8 6.2 0.0 0.0 0.0 0.0 0.0 0.1 0.1 0.1 0.0 0.0 0.0 0.2 0.1 6.8 0.0 0.0 0.0 0.0 0.1 0.1 0.1 0.0 0.0 0.0 0.1 0.1 0.0 0.0 0.0 0.0 0.0 0.1 0.1
15.0 15.0 4.4 15.0 15.0 5.4 0.5 0.0 0.0 0.1 0.2 3.6 0.0 0.0 1.0 8.9 0.2 13.6 13.7 0.1 0.0 0.0 0.0 0.0 0.0 0.1 0.3 5.6 1.4 10.8 0.1 0.0 7.2 15.0 13.0 10.0 0.8 0.0 0.0 0.0 0.0 0.0 0.0 0.0 0.1 5.1 7.7 0.1 0.0 0.0 0.1 0.1 0.3 10.3
1.0 15.0 15.0 15.0 7.9 9.0 0.0 0.0 6.7 14.8 1.1 14.3 0.2 12.3 1.6 10.9 0.8 0.0 0.3 0.1 0.2 0.4 0.2 0.0 0.0 0.0 0.0 0.0 0.0 0.0 0.2 0.0 0.1 1.1 9.1 1.5 0.2 0.1 10.3 1.6 0.0 0.0 0.0 0.0 0.0 0.0 0.1 0.0 0.1 0.1 0.2 1.0 1.5 0.9
11.3 4.3 15.0 15.0 9.4 8.8 0.1 0.6 15.0 15.0 15.0 15.0 15.0 10.9 0.2 0.0 4.9 0.0 2.7 1.9 0.0 0.0 0.0 0.0 0.0 0.0 0.0 0.0 0.0 0.1 0.7 0.1 13.2 15.0 15.0 15.0 15.0 15.0 1.9 0.0 0.0 0.0 0.0 0.0 0.0 0.0 0.0 0.0 0.0 0.0 0.1 0.1 0.1 0.1